Location: Greenwich
(51.4790°N, 0.0090°E)
Time: 02:54:04
(UTC+01:00)

Transit 4A - Pass Details

Date: 27 April 2024
Orbit: 871 x 971 km, 66.8° (Epoch: 20 May)

Event Time Altitude Azimuth Distance (km) Brightness Sun altitude
Rises 22:34:10 0° 309° (NW) 3,470 12.4 -17.3°
Reaches altitude 10° 22:38:28 10° 279° (W) 2,533 10.8 -17.7°
Maximum altitude 22:40:24 12° 259° (W) 2,411 10.4 -17.9°
Drops below altitude 10° 22:42:22 10° 239° (WSW) 2,539 10.2 -18.0°
Enters shadow 22:46:29 - 210° (SSW) 3,426 10.6 -18.4°
